Location: �chenoz-la-M�line
(47.6009°N, 6.1354°E)
Time: 13:03:52
(UTC+00:00)

Cosmos 2333 Rocket - Pass Details

Date: 27 January 2021
Orbit: 838 x 863 km, 70.8° (Epoch: 02 March)

Event Time Altitude Azimuth Distance (km) Brightness Sun altitude
Exits shadow 04:04:35 24° 4° (N) 1,706 3.8 -30.8°
Drops below altitude 10° 04:06:56 10° 18° (NNE) 2,478 4.9 -30.5°
Sets 04:09:32 0° 25° (NNE) 3,420 5.7 -30.0°
